Вернуться в каталог

CZ-2C DEB

АктивенSSO
NORAD 28484·DEBRIS·🇨🇳 China

Запущен Nov 18, 2004 с Xichang Satellite Launch Center

Loading…

Ближайшие Пролёты (ближайшие 24 часа)

TLE

СвежийSource: Space-Track

Эпоха: Sep 14, 2026, 12:00 UTC

1 28484U 04046F   26257.50054860  .00002269  00000-0  44755-3 0  9997
2 28484  98.3652 340.2528 0072454 339.1320  33.2216 14.61855228146592

Отслеживайте CZ-2C DEB в реальном времени с AllMySat

Download on the App Store